Location: 81360 Arifat, France
(43.7204°N, 2.3408°E)
Time: 14:01:27
(UTC+02:00)

Envisat - Pass Details

Date: 29 September 2021
Orbit: 764 x 766 km, 98.2° (Epoch: 20 October)

Event Time Altitude Azimuth Distance (km) Brightness Sun altitude
Rises 06:48:12 0° 16° (NNE) 3,240 6.6 -11.2°
Reaches altitude 10° 06:50:33 10° 20° (NNE) 2,309 5.8 -10.8°
Maximum altitude 06:55:35 63° 101° (E) 855 3.6 -9.9°
Drops below altitude 10° 07:00:36 10° 182° (S) 2,292 5.4 -9.0°
Sets 07:02:55 0° 186° (S) 3,213 6.1 -8.6°
